TimeMST,TemperatureF,Dew PointF,Humidity,Sea Level PressureIn,VisibilityMPH,Wind Direction,Wind SpeedMPH,Gust SpeedMPH,PrecipitationIn,Events,Conditions,WindDirDegrees,DateUTC
12:51 AM,14.0,7.0,74,30.27,10.0,ESE,8.1,-,N/A,,Overcast,110,2013-01-20 07:51:00
1:51 AM,14.0,7.0,74,30.30,10.0,ENE,6.9,-,N/A,,Overcast,70,2013-01-20 08:51:00
2:51 AM,14.0,7.0,74,30.36,8.0,ENE,6.9,-,0.00,Snow,Light Snow,70,2013-01-20 09:51:00
3:51 AM,14.0,8.1,77,30.39,6.0,North,3.5,-,0.00,Snow,Light Snow,360,2013-01-20 10:51:00
4:24 AM,15.8,8.6,73,30.27,5.0,NNW,6.9,-,0.00,Snow,Light Snow,330,2013-01-20 11:24:00
4:29 AM,15.8,8.6,73,30.27,4.0,NNW,6.9,-,0.00,Snow,Light Snow,330,2013-01-20 11:29:00
4:51 AM,15.1,9.0,77,30.42,5.0,NW,5.8,-,0.00,Snow,Light Snow,310,2013-01-20 11:51:00
5:36 AM,14.0,8.6,79,30.31,2.5,NNW,12.7,-,0.00,Snow,Light Snow,330,2013-01-20 12:36:00
5:45 AM,14.0,8.6,79,30.32,3.0,NNW,15.0,-,0.00,Snow,Light Snow,330,2013-01-20 12:45:00
5:51 AM,14.0,8.1,77,30.48,3.0,NNW,16.1,-,0.00,Snow,Light Snow,330,2013-01-20 12:51:00
5:57 AM,14.0,8.6,79,30.33,2.5,NNW,16.1,-,0.00,Snow,Light Snow,340,2013-01-20 12:57:00
6:10 AM,12.2,6.8,79,30.33,1.8,NNW,18.4,24.2,0.00,Snow,Light Snow,330,2013-01-20 13:10:00
6:15 AM,12.2,6.8,79,30.34,2.5,NNW,16.1,24.2,0.00,Snow,Light Snow,340,2013-01-20 13:15:00
6:20 AM,12.2,6.8,79,30.34,3.0,NNW,16.1,25.3,0.00,Snow,Light Snow,340,2013-01-20 13:20:00
6:31 AM,12.2,6.8,79,30.35,2.5,NNW,17.3,25.3,0.00,Snow,Light Snow,340,2013-01-20 13:31:00
7:32 AM,10.4,3.2,73,30.38,4.0,NNW,20.7,-,0.00,Snow,Light Snow,330,2013-01-20 14:32:00
7:38 AM,8.6,3.2,79,30.38,5.0,NNW,20.7,-,0.00,Snow,Light Snow,340,2013-01-20 14:38:00
7:51 AM,9.0,3.0,77,30.56,2.5,NNW,19.6,-,0.00,Snow,Light Snow,330,2013-01-20 14:51:00
8:11 AM,8.6,1.4,73,30.40,1.8,NNW,20.7,-,0.00,Snow,Light Snow,330,2013-01-20 15:11:00
8:17 AM,8.6,1.4,73,30.39,2.0,NNW,18.4,-,0.00,Snow,Light Snow,330,2013-01-20 15:17:00
8:20 AM,8.6,1.4,73,30.39,3.0,NNW,17.3,-,0.00,Snow,Light Snow,330,2013-01-20 15:20:00
8:51 AM,8.1,1.9,76,30.56,7.0,NW,12.7,-,0.00,Snow,Light Snow,320,2013-01-20 15:51:00
9:51 AM,9.0,1.9,73,30.59,3.0,NW,15.0,-,0.00,Snow,Light Snow,320,2013-01-20 16:51:00
9:58 AM,8.6,1.4,73,30.43,2.0,NNW,19.6,23.0,0.00,Snow,Light Snow,330,2013-01-20 16:58:00
10:10 AM,8.6,-0.4,67,30.43,5.0,NW,24.2,-,0.00,Snow,Light Snow,320,2013-01-20 17:10:00
10:22 AM,6.8,-0.4,72,30.43,4.0,NNW,20.7,-,0.00,Snow,Light Snow,330,2013-01-20 17:22:00
10:51 AM,7.0,-0.9,70,30.61,4.0,NW,16.1,25.3,0.00,Snow,Light Snow,320,2013-01-20 17:51:00
11:02 AM,6.8,-2.2,67,30.44,6.0,NW,17.3,23.0,0.00,Snow,Light Snow,320,2013-01-20 18:02:00
11:51 AM,7.0,-2.0,67,30.60,6.0,NNW,12.7,24.2,0.00,Snow,Light Snow,330,2013-01-20 18:51:00
12:10 PM,6.8,-2.2,67,30.42,9.0,NW,13.8,-,0.00,Snow,Light Snow,310,2013-01-20 19:10:00
12:41 PM,5.0,-2.2,72,30.40,9.0,NNW,15.0,-,0.00,Snow,Light Snow,330,2013-01-20 19:41:00
12:51 PM,5.0,-2.9,70,30.56,8.0,NNW,15.0,-,0.00,Snow,Light Snow,340,2013-01-20 19:51:00
1:00 PM,3.2,-2.2,78,30.39,9.0,NW,12.7,21.9,0.00,Snow,Light Snow,320,2013-01-20 20:00:00
1:17 PM,5.0,-4.0,66,30.39,9.0,NW,17.3,24.2,0.00,Snow,Light Snow,310,2013-01-20 20:17:00
1:24 PM,5.0,-4.0,66,30.39,9.0,NW,16.1,24.2,0.00,Snow,Light Snow,310,2013-01-20 20:24:00
2:15 PM,3.2,-5.8,66,30.38,9.0,NW,20.7,-,0.00,Snow,Light Snow,320,2013-01-20 21:15:00
2:25 PM,3.2,-5.8,66,30.39,9.0,NW,17.3,-,0.00,Snow,Light Snow,320,2013-01-20 21:25:00
2:39 PM,3.2,-5.8,66,30.39,10.0,NW,13.8,-,0.00,,Overcast,320,2013-01-20 21:39:00
2:51 PM,1.9,-6.0,69,30.58,10.0,NNW,12.7,-,0.00,,Overcast,330,2013-01-20 21:51:00
4:02 PM,-0.4,-9.4,66,30.39,10.0,NW,15.0,-,0.00,,Overcast,320,2013-01-20 23:02:00
4:51 PM,-0.9,-11.0,62,30.58,9.0,NW,18.4,-,0.00,Snow,Light Snow,320,2013-01-20 23:51:00
5:51 PM,-2.9,-13.0,62,30.58,10.0,NW,15.0,-,0.00,,Overcast,310,2013-01-21 00:51:00
6:51 PM,-2.0,-13.0,60,30.58,10.0,WNW,18.4,21.9,N/A,,Overcast,290,2013-01-21 01:51:00
7:51 PM,-2.0,-15.0,54,30.56,10.0,WNW,15.0,25.3,0.00,,Overcast,300,2013-01-21 02:51:00
8:51 PM,-5.1,-16.1,59,30.58,10.0,NW,6.9,-,N/A,,Clear,320,2013-01-21 03:51:00
9:51 PM,-6.0,-17.0,59,30.58,10.0,WNW,9.2,-,N/A,,Clear,300,2013-01-21 04:51:00
10:51 PM,-6.0,-16.1,62,30.57,10.0,WNW,10.4,-,N/A,,Clear,300,2013-01-21 05:51:00
11:51 PM,-4.0,-14.1,62,30.55,10.0,West,9.2,-,N/A,,Scattered Clouds,280,2013-01-21 06:51:00